Regional Weather Roundup
Issued by NWS Binghamton, NY

Home | Current Version | Previous Version | Text Only | Print | Product List | Glossary On
Versions: 1 2 3 4 5 6 7 8 9 10 11 12 13 14 15 16 17 18 19 20 21 22 23 24 25 26 27 28 29 30 31 32 33 34 35 36 37 38 39 40 41 42 43 44 45 46 47 48 49 50
000
ASUS41 KBGM 290310
RWRBGM

REGIONAL WEATHER ROUNDUP
NATIONAL WEATHER SERVICE BINGHAMTON NY
1100 PM EDT WED JUN 28 2017

Note: "fair" indicates few or no clouds below 12,000 feet with no
significant weather and/or obstructions to visibility.

* = Station(s) that does not report precipitation, such as rain,
snow, etc, also no thunder or fog.

NYZ009-015>018-022>025-036-037-044>046-055>057-062-290400
...Central New York...

CITY           SKY/WX    TMP DP  RH WIND       PRES   REMARKS
Binghamton     PTCLDY    63  49  60 SW7       30.10R
Cortland       FAIR      57  55  94 CALM      30.09R
Dansville      MOCLDY    62  54  74 S5        30.06F
Elmira         PTCLDY    60  56  86 CALM      30.08R
Seneca Falls   CLEAR     63  57  82 CALM      30.06R
Ithaca         CLOUDY    60  55  83 S3        30.09R
Hamilton       MOCLDY    57  54  88 CALM      30.08S
Hornell        CLEAR     59  54  82 SE5       30.11F
Monticello     PTCLDY    61  54  77 CALM      30.14R
Norwich        PTCLDY    57  54  88 CALM      30.10R
Oneonta        CLEAR     61 N/A N/A CALM      30.11S
Penn Yan       CLOUDY    65  53  65 S6        30.07R
Rome           CLOUDY    60  57  89 CALM      30.06R
Sidney         PTCLDY    55  55 100 CALM      30.10R
Syracuse       MOCLDY    63  57  81 CALM      30.04R
$$

PAZ038>040-043-044-047-048-072-290400
...Northeast Pennsylvania...

CITY           SKY/WX    TMP DP  RH WIND       PRES   REMARKS
Hazleton         N/A     63  46  55 S3        30.18R
Scranton       PTCLDY    68  50  52 CALM      30.11R
$$
&&
KEY
WCI = Wind Chill Index
VSB = Visibility
HX  = Heat Index
$$



USA.gov is the U.S. government's official web portal to all federal, state and local government web resources and services.